Location: Pinhead Observatory
(34.4473°N, 118.1985°W)
Time: 12:46:45
(UTC-07:00)

CZ-4C R/B - Visible Passes

Search period start: 07 July 2015 00:00
Search period end: 17 July 2015 00:00
Orbit: 767 x 1235 km, 63.4° (Epoch: 05 July)

Date Brightness Start Highest point End Pass type
(mag) Time Alt. Az. Time Alt. Az. Time Alt. Az.
13 Jul 4.5 04:56:13 10° SSE 04:59:37 18° ESE 05:03:24 10° ENE visible
15 Jul 4.5 04:16:02 10° SE 04:18:26 14° ESE 04:21:14 10° ENE visible
16 Jul 3.3 04:46:43 10° S 04:51:32 38° ESE 04:56:49 10° NE visible
